[[{"header":{"parameterUnit":"m.s-1","parameterCategory":1,"la1":30.2991,"la2":30.254,"lo1":-89.0895,"lo2":-89.0444,"dy":0.0017,"dx":0.0017,"nx":28,"ny":28,"refTime":"2023-09-26T03:00:00:Z","depth":0,"parameterNumber":2,"parameterNumberName":"U-component_of_WINDS"},"data":[0,0,0,0,0,0,0,0,0,0,0,0,0,0,0,0,0,0,0,0,0,0,0,0,0,0,0,0,0,0,0,0,0,0,0,0,0,0,0,0,0,0,0,0,0,0,0,0,0,0,0,0,0,0,0,0,0,0,-2.3446,-2.3447,0,-2.3471,-2.3471,-2.3471,-2.3364,-2.3361,-2.3358,-2.3355,-2.3381,-2.3385,-2.3388,0,0,0,0,0,0,0,0,0,0,0,0,0,-2.3309,-2.3312,-2.3446,-2.3447,-2.3447,-2.3471,-2.3471,-2.3471,-2.3365,-2.3361,-2.3357,-2.3354,-2.338,-2.3384,-2.3388,0,0,0,0,0,0,0,0,0,0,0,0,0,-2.3354,-2.3313,-2.3446,-2.3397,-2.3393,-2.3471,-2.3471,-2.3471,-2.3366,-2.3361,-2.3356,-2.3352,-2.3378,-2.3384,-2.3389,-2.3516,0,0,-2.3406,-2.3408,0,0,0,0,0,0,0,0,-2.3352,-2.3359,-2.3404,-2.34,-2.3396,-2.341,-2.3432,-2.3486,-2.3367,-2.3376,-2.3355,-2.335,-2.3394,-2.3398,-2.3413,-2.3517,-2.3518,-2.3406,-2.3409,-2.3412,-2.3413,0,0,0,0,0,0,0,-2.3349,-2.3358,-2.3456,-2.3405,-2.34,-2.3374,-2.3375,-2.3442,-2.3411,-2.3375,-2.3367,-2.3371,-2.3391,-2.3408,-2.3413,-2.3519,-2.3406,-2.3411,-2.3414,-2.3416,-2.3729,-2.3734,0,0,0,0,0,0,-2.3352,-2.3356,-2.3455,-2.3457,-2.3362,-2.338,-2.3381,-2.341,-2.341,-2.3406,-2.3375,-2.3366,-2.3401,-2.3407,-2.3413,-2.3563,-2.3412,-2.3417,-2.342,-2.3724,-2.373,-2.3736,0,0,0,0,0,0,-2.335,-2.3362,-2.3454,-2.3404,-2.3414,-2.3387,-2.342,-2.3413,-2.343,-2.3411,-2.3405,-2.3398,-2.3398,-2.3406,-2.3491,-2.3562,-2.3419,-2.3424,-2.3718,-2.3726,-2.3733,-2.3863,0,0,0,0,0,0,-2.3346,-2.3362,-2.341,-2.3406,-2.3417,-2.3532,-2.3425,-2.3417,-2.3439,-2.3428,-2.343,-2.3426,-2.3395,-2.3484,-2.3497,-2.3567,-2.3428,-2.3712,-2.3722,-2.3731,-2.3853,-2.3874,-2.3893,0,0,0,0,0,-2.3342,-2.3445,-2.3413,-2.3425,-2.3476,-2.3536,-2.3543,-2.3504,-2.3445,-2.3493,-2.3481,-2.3426,-2.3552,-2.3494,-2.3507,-2.358,-2.3707,-2.3719,-2.373,-2.3843,-2.387,-2.3893,0,0,0,0,0,0,-2.3458,-2.3444,-2.3408,-2.3513,-2.3527,-2.3518,-2.3578,-2.3533,-2.3564,-2.3552,-2.3502,-2.3504,-2.3599,-2.3597,-2.3533,-2.3704,-2.362,-2.3634,-2.3701,-2.3726,-2.3746,-2.3745,-2.3433,0,0,0,0,0,-2.3496,-2.3546,-2.3531,-2.3625,-2.3634,-2.3605,-2.363,-2.3599,-2.3611,-2.3616,-2.361,-2.3624,-2.3667,-2.3696,-2.3734,-2.3851,-2.3851,-2.3908,-2.3928,-2.3945,-2.3959,-2.4022,-2.4047,-2.3773,-2.3773,-2.3773,0,0,-2.3575,-2.3574,-2.3608,-2.3649,-2.3656,-2.3709,-2.3611,-2.3671,-2.371,-2.3625,-2.3706,-2.3702,-2.3715,-2.3817,-2.3862,-2.3819,-2.4034,-2.396,-2.3973,-2.3978,-2.4036,-2.4062,-2.4085,-2.3781,-2.378,-2.3779,0,0,-2.3747,-2.375,-2.383,-2.3839,-2.385,-2.383,-2.385,-2.3848,-2.3842,-2.3922,-2.386,-2.3906,-2.398,-2.3992,-2.4008,-2.4184,-2.4135,-2.4198,-2.4304,-2.4366,-2.4387,-2.4406,-2.447,-2.4494,-2.4211,-2.4211,-2.4212,0,-2.3844,-2.3921,-2.3877,-2.3941,-2.3961,-2.3887,-2.3968,-2.3978,-2.4002,-2.4018,-2.397,-2.4062,-2.4065,-2.4169,-2.4212,-2.4227,-2.4248,-2.4198,-2.4388,-2.4406,-2.4423,-2.4484,-2.4508,-2.4219,-2.4218,-2.4217,-2.4217,0,-2.404,-2.4095,-2.4158,-2.4183,-2.421,-2.4282,-2.4249,-2.4282,-2.4248,-2.4234,-2.4317,-2.4318,-2.4355,-2.4377,-2.4345,-2.4477,-2.4451,-2.4396,-2.4311,-2.4458,-2.4514,-2.4537,-2.423,-2.4227,-2.4225,-2.4223,0,0,-2.4287,-2.4286,-2.431,-2.4321,-2.4328,-2.437,-2.4439,-2.4475,-2.4505,-2.4524,-2.4581,-2.4646,-2.4595,-2.4613,-2.4581,-2.4635,-2.4776,-2.4574,-2.4573,-2.4613,-2.4924,-2.4966,-2.4994,-2.4743,-2.4747,-2.4751,-2.4923,0,-2.4456,-2.4574,-2.4537,-2.4656,-2.4707,-2.4636,-2.4697,-2.4708,-2.4696,-2.4737,-2.4723,-2.4771,-2.47,-2.471,-2.476,-2.4749,-2.4838,-2.4735,-2.4797,-2.48,-2.4798,-2.5023,-2.5067,-2.523,-2.4945,-2.4948,-2.4951,0,-2.467,-2.4697,-2.4823,-2.4822,-2.4841,-2.4896,-2.4927,-2.4967,-2.4978,-2.4966,-2.4986,-2.4943,-2.5011,-2.4925,-2.5018,-2.4949,-2.4972,-2.497,-2.4975,-2.4981,-2.4886,-2.5036,-2.5281,-2.5306,-2.4985,-2.4982,-2.498,0,-2.4839,-2.4907,-2.4991,-2.5002,-2.5003,-2.5043,-2.5046,-2.5052,-2.5077,-2.5103,-2.5119,-2.5153,-2.5173,-2.52,-2.5168,-2.5108,-2.5267,-2.5178,-2.5259,-2.5261,-2.5297,-2.5296,-2.5551,-2.531,-2.531,-2.5309,-2.5309,0,-2.5033,-2.5113,-2.5067,-2.5119,-2.5206,-2.5161,-2.5249,-2.5243,-2.525,-2.53,-2.524,-2.5288,-2.5242,-2.5286,-2.5261,-2.5343,-2.5351,-2.5344,-2.5337,-2.535,-2.5352,-2.5366,-2.5354,-2.5316,-2.5314,-2.5313,-2.5312,0,-2.5237,-2.521,-2.5297,-2.529,-2.5291,-2.5356,-2.535,-2.5398,-2.5381,-2.5445,-2.5457,-2.5432,-2.548,-2.545,-2.55,-2.5483,-2.559,-2.5567,-2.5587,-2.5581,-2.5665,-2.5658,-2.594,-2.5975,-2.571,-2.5712,-2.5715,0,-2.5364,-2.5423,-2.5423,-2.5452,-2.5459,-2.5506,-2.5531,-2.5489,-2.5517,-2.5535,-2.5581,-2.5624,-2.5657,-2.5738,-2.5724,-2.5761,-2.5739,-2.5835,-2.5744,-2.5757,-2.5742,-2.574,-2.5746,-2.5854,-2.5857,-2.586,-2.5862,0,-2.5591,-2.5575,-2.5612,-2.5646,-2.5678,-2.5702,-2.5722,-2.5749,-2.5707,-2.5742,-2.5791,-2.5816,-2.5866,-2.5911,-2.5942,-2.5944,-2.5897,-2.589,-2.5911,-2.5927,-2.5937,-2.5934,-2.5638,-2.5884,-2.5882,-2.588,-2.5879,-2.5878,-2.5761,-2.5811,-2.5819,-2.5864,-2.5874,-2.5894,-2.5939,-2.5928,-2.5968,-2.6006,-2.5978,-2.6037,-2.6047,-2.6084,-2.6093,-2.6138,-2.6099,-2.613,-2.6138,-2.6146,-2.6158,-2.5928,-2.6143,-2.6143,-2.6142,-2.6141,-2.6141,0,-2.5987,-2.5988,-2.603,-2.6059,-2.6095,-2.6046,-2.6065,-2.6098,-2.615,-2.6163,-2.6197,-2.6253,-2.6296,-2.6285,-2.6324,-2.6362,-2.6341,-2.6374,-2.6371,-2.6373,-2.619,-2.6169,-2.639,-2.639,-2.639,-2.639,-2.639,-2.639,-2.6108,-2.6191,-2.6176,-2.6263,-2.6264,-2.6321,-2.6336,-2.6354,-2.6365,-2.6431,-2.6466,-2.6458,-2.6462,-2.65,-2.6537,-2.6533,-2.6551,-2.6592,-2.658,-2.641,-2.6385,-2.6362,-2.6342,-2.6595,-2.6596,-2.6758,-2.676,-2.6761]},{"header":{"parameterUnit":"m.s-1","parameterCategory":1,"la1":30.2991,"la2":30.254,"lo1":-89.0895,"lo2":-89.0444,"dy":0.0017,"dx":0.0017,"nx":28,"ny":28,"refTime":"2023-09-26T03:00:00:Z","depth":0,"parameterNumber":3,"parameterNumberName":"V-component_of_WINDS"},"data":[0,0,0,0,0,0,0,0,0,0,0,0,0,0,0,0,0,0,0,0,0,0,0,0,0,0,0,0,0,0,0,0,0,0,0,0,0,0,0,0,0,0,0,0,0,0,0,0,0,0,0,0,0,0,0,0,0,0,-3.2181,-3.2182,0,-3.2252,-3.2253,-3.2254,-3.2218,-3.2216,-3.2214,-3.2212,-3.2282,-3.2286,-3.2289,0,0,0,0,0,0,0,0,0,0,0,0,0,-3.2011,-3.2015,-3.2181,-3.2182,-3.2183,-3.2252,-3.2253,-3.2254,-3.2218,-3.2216,-3.2214,-3.2212,-3.2281,-3.2285,-3.2289,0,0,0,0,0,0,0,0,0,0,0,0,0,-3.2084,-3.2016,-3.2181,-3.2173,-3.2173,-3.2252,-3.2253,-3.2254,-3.2219,-3.2216,-3.2213,-3.221,-3.228,-3.2285,-3.229,-3.2379,0,0,-3.2306,-3.2309,0,0,0,0,0,0,0,0,-3.208,-3.209,-3.2174,-3.2174,-3.2174,-3.2223,-3.2219,-3.2296,-3.2219,-3.2201,-3.2212,-3.2209,-3.2265,-3.2271,-3.229,-3.2382,-3.2385,-3.2307,-3.231,-3.2313,-3.2314,0,0,0,0,0,0,0,-3.2075,-3.2087,-3.2209,-3.2175,-3.2175,-3.2165,-3.2173,-3.2233,-3.2248,-3.2203,-3.22,-3.2209,-3.2264,-3.2285,-3.2292,-3.2386,-3.2307,-3.2312,-3.2315,-3.2317,-3.2553,-3.2556,0,0,0,0,0,0,-3.2071,-3.2083,-3.2207,-3.2211,-3.2119,-3.2171,-3.2179,-3.221,-3.2247,-3.225,-3.2212,-3.2207,-3.2277,-3.2285,-3.2294,-3.24,-3.2312,-3.2318,-3.2321,-3.255,-3.2554,-3.2557,0,0,0,0,0,0,-3.2067,-3.2082,-3.2204,-3.2146,-3.2161,-3.2177,-3.2212,-3.2213,-3.2234,-3.2254,-3.2256,-3.2231,-3.2276,-3.2286,-3.2358,-3.2402,-3.232,-3.2325,-3.2547,-3.2552,-3.2556,-3.2613,0,0,0,0,0,0,-3.2062,-3.2081,-3.2116,-3.2148,-3.2164,-3.2268,-3.2215,-3.2217,-3.2244,-3.2239,-3.2272,-3.2275,-3.2274,-3.235,-3.2363,-3.2408,-3.2329,-3.2543,-3.2549,-3.2554,-3.2608,-3.2619,-3.2629,0,0,0,0,0,-3.2056,-3.2129,-3.2118,-3.2133,-3.2208,-3.2271,-3.228,-3.2279,-3.2248,-3.2282,-3.2294,-3.2274,-3.2395,-3.2358,-3.2372,-3.2419,-3.254,-3.2547,-3.2554,-3.2603,-3.2617,-3.2629,0,0,0,0,0,0,-3.2101,-3.2133,-3.2121,-3.2206,-3.2236,-3.2264,-3.2308,-3.2294,-3.2333,-3.2327,-3.2322,-3.233,-3.2404,-3.2419,-3.2377,-3.2507,-3.2463,-3.2473,-3.2495,-3.2509,-3.2519,-3.2514,-3.2333,0,0,0,0,0,-3.212,-3.2169,-3.2194,-3.2266,-3.2282,-3.2293,-3.232,-3.2316,-3.2347,-3.2359,-3.2376,-3.2406,-3.2451,-3.248,-3.2523,-3.2609,-3.2616,-3.2649,-3.2659,-3.2668,-3.2677,-3.2724,-3.2738,-3.258,-3.258,-3.258,0,0,-3.2161,-3.2185,-3.2216,-3.2276,-3.2299,-3.2348,-3.2303,-3.2358,-3.2395,-3.2367,-3.2436,-3.245,-3.2482,-3.2562,-3.2598,-3.2576,-3.2722,-3.2677,-3.2684,-3.2688,-3.2732,-3.2747,-3.2761,-3.2585,-3.2584,-3.2583,0,0,-3.2261,-3.2284,-3.2347,-3.2371,-3.2407,-3.2413,-3.2428,-3.2459,-3.2468,-3.2537,-3.2517,-3.256,-3.2637,-3.2661,-3.2683,-3.2792,-3.2775,-3.2806,-3.2863,-3.2908,-3.2921,-3.2932,-3.2971,-3.2985,-3.2815,-3.2815,-3.2815,0,-3.2308,-3.2383,-3.2381,-3.2437,-3.2464,-3.2442,-3.2505,-3.2528,-3.2575,-3.2593,-3.2568,-3.2665,-3.2685,-3.277,-3.2797,-3.2816,-3.2832,-3.2802,-3.2919,-3.2931,-3.2941,-3.2978,-3.2992,-3.2818,-3.2818,-3.2818,-3.2817,0,-3.2438,-3.249,-3.2536,-3.2584,-3.2615,-3.2675,-3.2681,-3.2713,-3.2706,-3.2715,-3.2785,-3.2809,-3.2855,-3.2875,-3.2869,-3.2959,-3.2944,-3.292,-3.2875,-3.296,-3.2994,-3.3008,-3.2824,-3.2822,-3.2821,-3.282,0,0,-3.2568,-3.2614,-3.2631,-3.2652,-3.2689,-3.2729,-3.2787,-3.2833,-3.2861,-3.2894,-3.2941,-3.3007,-3.2985,-3.301,-3.3006,-3.3046,-3.313,-3.3016,-3.3017,-3.3037,-3.3231,-3.3249,-3.3266,-3.3119,-3.3121,-3.3124,-3.3228,0,-3.2671,-3.2774,-3.2773,-3.2868,-3.2916,-3.2895,-3.2945,-3.2973,-3.2982,-3.3023,-3.3033,-3.308,-3.3047,-3.3062,-3.31,-3.3112,-3.3169,-3.3104,-3.3163,-3.3165,-3.3156,-3.3284,-3.3304,-3.3401,-3.3242,-3.3244,-3.3245,0,-3.2805,-3.2844,-3.2943,-3.2973,-3.2993,-3.3039,-3.3081,-3.3121,-3.3152,-3.3155,-3.3184,-3.3174,-3.3231,-3.3185,-3.3264,-3.322,-3.3244,-3.3253,-3.3257,-3.3262,-3.3211,-3.3293,-3.3432,-3.3447,-3.3267,-3.3265,-3.3264,0,-3.2891,-3.2967,-3.3036,-3.3055,-3.3092,-3.3124,-3.3141,-3.3169,-3.3197,-3.3233,-3.3251,-3.3293,-3.3316,-3.3349,-3.335,-3.3316,-3.343,-3.3384,-3.3434,-3.3434,-3.3459,-3.3458,-3.3605,-3.3474,-3.3474,-3.3474,-3.3473,0,-3.3006,-3.3067,-3.3075,-3.3118,-3.3186,-3.3184,-3.3251,-3.3265,-3.329,-3.3334,-3.3318,-3.3359,-3.3358,-3.34,-3.3401,-3.3466,-3.3477,-3.3481,-3.348,-3.3483,-3.3482,-3.3498,-3.3492,-3.3477,-3.3477,-3.3476,-3.3475,0,-3.3113,-3.3121,-3.3195,-3.3224,-3.3233,-3.3281,-3.3306,-3.3346,-3.3353,-3.3409,-3.3422,-3.3434,-3.3483,-3.3487,-3.3543,-3.3544,-3.3622,-3.3614,-3.3613,-3.3611,-3.3662,-3.3657,-3.3824,-3.3846,-3.3701,-3.3703,-3.3704,0,-3.3186,-3.3233,-3.3267,-3.3296,-3.3315,-3.3362,-3.339,-3.339,-3.342,-3.3458,-3.3493,-3.354,-3.3578,-3.3656,-3.3669,-3.3712,-3.3705,-3.3761,-3.3711,-3.3712,-3.3706,-3.3703,-3.3708,-3.377,-3.3772,-3.3773,-3.3774,0,-3.3315,-3.3317,-3.3359,-3.3403,-3.3438,-3.3472,-3.3503,-3.3528,-3.3531,-3.3565,-3.3615,-3.3645,-3.3702,-3.3749,-3.379,-3.3806,-3.3791,-3.379,-3.3804,-3.3806,-3.3804,-3.3806,-3.3639,-3.3786,-3.3785,-3.3784,-3.3783,-3.3783,-3.3408,-3.3449,-3.3479,-3.3527,-3.3551,-3.3581,-3.362,-3.3633,-3.3675,-3.3722,-3.3719,-3.3774,-3.3802,-3.3857,-3.3876,-3.3918,-3.3899,-3.3919,-3.3925,-3.393,-3.3935,-3.3797,-3.3926,-3.3925,-3.3925,-3.3925,-3.3924,0,-3.3536,-3.3555,-3.3599,-3.3644,-3.3681,-3.3664,-3.3698,-3.373,-3.3779,-3.3808,-3.3845,-3.3902,-3.3947,-3.3964,-3.4008,-3.4038,-3.4032,-3.405,-3.4048,-3.4052,-3.3949,-3.3933,-3.4054,-3.4054,-3.4054,-3.4054,-3.4054,-3.4054,-3.3608,-3.3676,-3.3681,-3.376,-3.3778,-3.3833,-3.3854,-3.3881,-3.3904,-3.3968,-3.4006,-3.4017,-3.404,-3.4086,-3.4126,-3.4129,-3.4146,-3.4167,-3.4168,-3.4072,-3.4059,-3.4046,-3.4031,-3.4171,-3.4171,-3.4266,-3.4267,-3.4268]}]]